When you browse on this site, cookies collect data to enhance your experience and personalize the content and advertising you see.
Visit our Privacy Policy to learn more. By continuing to use the site, you agree to this use of cookies and data.
  • en Suisse
  • Liste des pays
  • À 7 jours
  • Température de l'eau
  • Carte météo
  • Widgets météo
  • user-avatar
    Se connecter

    Météo par heure à Kusty

    Ce jour, 22 Septembre, Dimanche

    Heure Température Précipitation Vent Pression Humidité
    00:00 +4°C° 0 mm 4 m/s 738 mmHg 70%
    01:00 +3°C° 0.2 mm 5 m/s 737 mmHg 77%
    02:00 +3°C° 0.2 mm 6 m/s 736 mmHg 83%
    03:00 +3°C° 0 mm 6 m/s 735 mmHg 90%
    04:00 +3°C° 0.5 mm 6 m/s 734 mmHg 90%
    05:00 +3°C° 0.5 mm 6 m/s 733 mmHg 91%
    06:00 +4°C° 0.5 mm 6 m/s 732 mmHg 91%
    07:00 +4°C° 0.1 mm 6 m/s 731 mmHg 91%
    08:00 +5°C° 0.1 mm 6 m/s 731 mmHg 90%
    09:00 +7°C° 0.1 mm 6 m/s 731 mmHg 89%
    10:00 +6°C° 0.1 mm 7 m/s 731 mmHg 84%
    11:00 +6°C° 0.1 mm 8 m/s 731 mmHg 80%
    12:00 +7°C° 0.1 mm 9 m/s 731 mmHg 75%
    13:00 +7°C° 0.2 mm 9 m/s 731 mmHg 72%
    14:00 +6°C° 0.2 mm 9 m/s 731 mmHg 68%
    15:00 +6°C° 0.2 mm 9 m/s 732 mmHg 64%
    16:00 +5°C° 0.1 mm 9 m/s 732 mmHg 65%
    17:00 +5°C° 0.1 mm 8 m/s 733 mmHg 67%
    18:00 +4°C° 0.1 mm 7 m/s 733 mmHg 68%
    19:00 +3°C° 0 mm 7 m/s 734 mmHg 71%
    20:00 +3°C° 0 mm 7 m/s 734 mmHg 74%
    21:00 +2°C° 0 mm 7 m/s 735 mmHg 77%
    22:00 0°C° 0 mm 7 m/s 735 mmHg 79%
    23:00 0°C° 0 mm 7 m/s 736 mmHg 81%

    Demain, 23 Septembre, Lundi

    Heure Température Précipitation Vent Pression Humidité
    00:00 0°C° 0 mm 7 m/s 736 mmHg 82%
    01:00 -1°C° 0 mm 6 m/s 737 mmHg 83%
    02:00 -1°C° 0 mm 6 m/s 738 mmHg 85%
    03:00 -1°C° 0 mm 6 m/s 738 mmHg 86%
    04:00 0°C° 0 mm 5 m/s 739 mmHg 85%
    05:00 0°C° 0 mm 5 m/s 739 mmHg 83%
    06:00 0°C° 0 mm 5 m/s 740 mmHg 82%
    07:00 +1°C° 0 mm 5 m/s 740 mmHg 77%
    08:00 +2°C° 0 mm 5 m/s 741 mmHg 73%
    09:00 +2°C° 0 mm 6 m/s 741 mmHg 68%
    10:00 +3°C° 0 mm 6 m/s 742 mmHg 65%
    11:00 +4°C° 0 mm 6 m/s 742 mmHg 61%
    12:00 +5°C° 0 mm 6 m/s 742 mmHg 58%
    13:00 +7°C° 0 mm 6 m/s 742 mmHg 57%
    14:00 +7°C° 0 mm 6 m/s 742 mmHg 56%
    15:00 +7°C° 0 mm 6 m/s 743 mmHg 56%
    16:00 +7°C° 0 mm 5 m/s 743 mmHg 59%
    17:00 +6°C° 0 mm 5 m/s 743 mmHg 63%
    18:00 +5°C° 0 mm 4 m/s 743 mmHg 66%
    19:00 +4°C° 0 mm 4 m/s 743 mmHg 69%
    20:00 +4°C° 0 mm 4 m/s 744 mmHg 71%
    21:00 +3°C° 0 mm 4 m/s 744 mmHg 74%
    22:00 +2°C° 0 mm 3 m/s 744 mmHg 75%
    23:00 +1°C° 0 mm 3 m/s 744 mmHg 76%

    Après-demain, 24 Septembre, Mardi

    Heure Température Précipitation Vent Pression Humidité
    00:00 +2°C° 0 mm 2 m/s 744 mmHg 78%
    01:00 +1°C° 0 mm 3 m/s 744 mmHg 78%
    02:00 +1°C° 0 mm 3 m/s 744 mmHg 78%
    03:00 0°C° 0 mm 3 m/s 745 mmHg 78%
    04:00 0°C° 0 mm 3 m/s 745 mmHg 81%
    05:00 0°C° 0 mm 3 m/s 745 mmHg 84%
    06:00 0°C° 0 mm 3 m/s 745 mmHg 87%
    07:00 +1°C° 0 mm 3 m/s 745 mmHg 80%
    08:00 +2°C° 0 mm 3 m/s 745 mmHg 73%
    09:00 +3°C° 0 mm 4 m/s 745 mmHg 66%
    10:00 +4°C° 0 mm 4 m/s 745 mmHg 64%
    11:00 +5°C° 0 mm 4 m/s 745 mmHg 61%
    12:00 +6°C° 0 mm 4 m/s 745 mmHg 59%
    13:00 +6°C° 0.1 mm 4 m/s 744 mmHg 60%
    14:00 +6°C° 0.1 mm 4 m/s 744 mmHg 61%
    15:00 +6°C° 0.1 mm 4 m/s 744 mmHg 62%
    16:00 +5°C° 0 mm 4 m/s 744 mmHg 65%
    17:00 +5°C° 0 mm 3 m/s 744 mmHg 67%
    18:00 +4°C° 0 mm 3 m/s 744 mmHg 70%
    19:00 +3°C° 0 mm 3 m/s 744 mmHg 73%
    20:00 +3°C° 0 mm 2 m/s 744 mmHg 76%
    21:00 +3°C° 0 mm 2 m/s 744 mmHg 78%
    22:00 +2°C° 0 mm 2 m/s 744 mmHg 80%
    23:00 +2°C° 0 mm 2 m/s 745 mmHg 82%

    25 Septembre, Mercredi

    Heure Température Précipitation Vent Pression Humidité
    00:00 +2°C° 0 mm 2 m/s 745 mmHg 84%
    01:00 +1°C° 0 mm 2 m/s 745 mmHg 86%
    02:00 +1°C° 0 mm 2 m/s 745 mmHg 87%
    03:00 +1°C° 0 mm 2 m/s 745 mmHg 89%
    04:00 -1°C° 0 mm 2 m/s 745 mmHg 90%
    05:00 -1°C° 0 mm 2 m/s 745 mmHg 91%
    06:00 -1°C° 0 mm 2 m/s 745 mmHg 93%
    07:00 +1°C° 0 mm 2 m/s 745 mmHg 86%
    08:00 +3°C° 0 mm 2 m/s 745 mmHg 79%
    09:00 +4°C° 0 mm 2 m/s 745 mmHg 72%
    10:00 +5°C° 0 mm 2 m/s 746 mmHg 66%
    11:00 +6°C° 0 mm 2 m/s 746 mmHg 60%
    12:00 +8°C° 0 mm 2 m/s 746 mmHg 54%
    13:00 +8°C° 0 mm 3 m/s 746 mmHg 53%
    14:00 +8°C° 0 mm 3 m/s 746 mmHg 53%
    15:00 +8°C° 0 mm 3 m/s 745 mmHg 53%
    16:00 +8°C° 0 mm 2 m/s 745 mmHg 56%
    17:00 +8°C° 0 mm 1 m/s 745 mmHg 59%
    18:00 +8°C° 0 mm 1 m/s 745 mmHg 62%
    19:00 +7°C° 0 mm 1 m/s 745 mmHg 64%
    20:00 +6°C° 0 mm 1 m/s 745 mmHg 66%
    21:00 +6°C° 0 mm 1 m/s 746 mmHg 68%
    22:00 +5°C° 0 mm 1 m/s 746 mmHg 69%
    23:00 +5°C° 0 mm 1 m/s 746 mmHg 71%

    26 Septembre, Jeudi

    Heure Température Précipitation Vent Pression Humidité
    00:00 +5°C° 0 mm 1 m/s 746 mmHg 72%
    01:00 +4°C° 0 mm 1 m/s 746 mmHg 72%
    02:00 +4°C° 0 mm 1 m/s 746 mmHg 73%
    03:00 +4°C° 0 mm 1 m/s 746 mmHg 73%
    04:00 +4°C° 0 mm 1 m/s 746 mmHg 74%
    05:00 +4°C° 0 mm 1 m/s 746 mmHg 74%
    06:00 +4°C° 0 mm 1 m/s 746 mmHg 75%
    07:00 +4°C° 0 mm 2 m/s 746 mmHg 71%
    08:00 +5°C° 0 mm 2 m/s 746 mmHg 67%
    09:00 +7°C° 0 mm 2 m/s 746 mmHg 63%
    10:00 +8°C° 0 mm 3 m/s 746 mmHg 58%
    11:00 +9°C° 0 mm 3 m/s 746 mmHg 53%
    12:00 +11°C° 0 mm 4 m/s 746 mmHg 49%
    13:00 +11°C° 0 mm 4 m/s 745 mmHg 48%
    14:00 +11°C° 0 mm 4 m/s 745 mmHg 47%
    15:00 +12°C° 0 mm 4 m/s 744 mmHg 46%
    16:00 +11°C° 0 mm 3 m/s 744 mmHg 50%
    17:00 +10°C° 0 mm 3 m/s 744 mmHg 54%
    18:00 +9°C° 0 mm 2 m/s 743 mmHg 58%
    19:00 +9°C° 0 mm 3 m/s 743 mmHg 58%
    20:00 +8°C° 0 mm 3 m/s 743 mmHg 57%
    21:00 +7°C° 0 mm 4 m/s 743 mmHg 57%
    22:00 +7°C° 0 mm 4 m/s 742 mmHg 56%
    23:00 +7°C° 0 mm 4 m/s 742 mmHg 54%

    27 Septembre, Vendredi

    Heure Température Précipitation Vent Pression Humidité
    00:00 +7°C° 0 mm 4 m/s 742 mmHg 53%
    01:00 +7°C° 0 mm 4 m/s 741 mmHg 54%
    02:00 +6°C° 0 mm 4 m/s 741 mmHg 54%
    03:00 +6°C° 0 mm 4 m/s 741 mmHg 54%
    04:00 +7°C° 0 mm 3 m/s 740 mmHg 55%
    05:00 +7°C° 0 mm 3 m/s 740 mmHg 55%
    06:00 +7°C° 0 mm 3 m/s 739 mmHg 56%
    07:00 +8°C° 0 mm 3 m/s 739 mmHg 55%
    08:00 +8°C° 0 mm 3 m/s 739 mmHg 55%
    09:00 +9°C° 0 mm 3 m/s 738 mmHg 54%
    10:00 +9°C° 0 mm 3 m/s 738 mmHg 56%
    11:00 +9°C° 0 mm 2 m/s 738 mmHg 58%
    12:00 +10°C° 0 mm 2 m/s 738 mmHg 59%
    13:00 +9°C° 0.1 mm 2 m/s 738 mmHg 63%
    14:00 +10°C° 0.1 mm 1 m/s 737 mmHg 66%
    15:00 +10°C° 0.1 mm 1 m/s 737 mmHg 70%
    16:00 +9°C° 0.6 mm 1 m/s 737 mmHg 77%
    17:00 +7°C° 0.6 mm 2 m/s 737 mmHg 84%
    18:00 +7°C° 0.6 mm 2 m/s 737 mmHg 91%
    19:00 +7°C° 0.1 mm 3 m/s 738 mmHg 91%
    20:00 +7°C° 0.1 mm 3 m/s 738 mmHg 91%
    21:00 +6°C° 0.1 mm 4 m/s 739 mmHg 91%
    22:00 +5°C° 0 mm 5 m/s 739 mmHg 90%
    23:00 +5°C° 0 mm 5 m/s 739 mmHg 90%
    Voir plus